Lompoc, CA

7:37 AM PST on February 21, 2018 (GMT -0800)
Lompoc

Weather History for KLPC - November, 2012

Change the Weather History Date:

Wednesday, November 21, 2012

  Actual Average Record
Temperature  
Mean Temperature 58 °F -  
Max Temperature 71 °F 67 °F 87 °F (2002)
Min Temperature 46 °F 41 °F 27 °F (1979)
Degree Days  
Heating Degree Days 6    
Growing Degree Days 8 (Base 50)    
Moisture  
Dew Point 52 °F    
Average Humidity 83    
Maximum Humidity 100    
Minimum Humidity 57    
Precipitation  
Precipitation 0.00 in - - ()
Sea Level Pressure  
Sea Level Pressure 30.13 in    
Wind  
Wind Speed 4 mph (WNW)    
Max Wind Speed 16 mph    
Max Gust Speed 21 mph    
Visibility 7 miles    
Events      
Averages and records for this station are not official NWS values.
T = Trace of Precipitation, MM = Missing Value Source: NWS Daily Summary

Daily Weather History Graph

Daily Weather History Graph

Search for Another Location

Airport or City:

Trip Planner

Search our weather history database for the weather conditions in past years. The results will help you decide how hot, cold, wet, or windy it might be!

Date:

Astronomy

Nov. 21, 2012 Rise Set
Actual Time 6:42 AM PST 4:53 PM PST
Civil Twilight 6:14 AM PST 5:20 PM PST
Nautical Twilight 5:44 AM PST 5:51 PM PST
Astronomical Twilight 5:13 AM PST 6:21 PM PST
Moon 12:59 PM PST 12:21 AM PST
Length of Visible Light 11h 05m
Length of Day
10h 11m
Waxing Gibbous, 63% of the Moon is Illuminated
Nov 21
Waxing Gibbous
Nov 28
Full
Dec 6
Last Quarter
Dec 13
New
Dec 19
First Quarter

Hourly Weather History & Observations

Time (PST) Temp. Dew Point Humidity Pressure Visibility Wind Dir Wind Speed Gust Speed Precip Events Conditions
12:15 AM 48.2 °F 46.4 °F 93% 30.14 in 0.5 mi Calm Calm - N/A   Overcast
12:35 AM 48.2 °F 46.4 °F 93% 30.14 in 0.5 mi Calm Calm - N/A   Overcast
12:55 AM 46.4 °F 44.6 °F 93% 30.14 in 0.2 mi Calm Calm - N/A   Overcast
1:15 AM 46.4 °F 44.6 °F 93% 30.14 in 0.2 mi Calm Calm - N/A   Overcast
1:35 AM 48.2 °F 46.4 °F 93% 30.13 in 1.8 mi Calm Calm - N/A   Overcast
1:55 AM 48.2 °F 46.4 °F 93% 30.13 in 0.5 mi Calm Calm - N/A   Overcast
2:15 AM 48.2 °F 46.4 °F 93% 30.13 in 0.2 mi Calm Calm - N/A   Overcast
2:35 AM 48.2 °F 48.2 °F 100% 30.13 in 0.2 mi Calm Calm - N/A   Overcast
2:55 AM 50.0 °F 48.2 °F 94% 30.13 in 0.2 mi Calm Calm - N/A   Overcast
3:15 AM 50.0 °F 48.2 °F 94% 30.13 in 0.2 mi Calm Calm - N/A   Overcast
3:35 AM 48.2 °F 46.4 °F 93% 30.12 in 0.2 mi Calm Calm - N/A   Overcast
3:55 AM 50.0 °F 48.2 °F 94% 30.12 in 0.2 mi Calm Calm - N/A   Overcast
4:15 AM 50.0 °F 48.2 °F 94% 30.12 in 0.2 mi Calm Calm - N/A   Overcast
4:35 AM 50.0 °F 48.2 °F 94% 30.12 in 0.2 mi Calm Calm - N/A   Overcast
4:55 AM 50.0 °F 48.2 °F 94% 30.12 in 0.5 mi Calm Calm - N/A   Overcast
5:15 AM 51.8 °F 48.2 °F 88% 30.13 in 0.2 mi Calm Calm - N/A   Overcast
5:35 AM 51.8 °F 48.2 °F 88% 30.13 in 0.2 mi Calm Calm - N/A   Overcast
5:55 AM 50.0 °F 48.2 °F 94% 30.14 in 0.2 mi Calm Calm - N/A   Overcast
6:15 AM 51.8 °F 50.0 °F 94% 30.14 in 0.2 mi Calm Calm - N/A   Overcast
6:35 AM 50.0 °F 48.2 °F 94% 30.14 in 0.2 mi Calm Calm - N/A   Overcast
6:55 AM 50.0 °F 48.2 °F 94% 30.15 in 0.2 mi Calm Calm - N/A   Overcast
7:15 AM 48.2 °F 48.2 °F 100% 30.15 in 1.0 mi Calm Calm - N/A   Overcast
7:35 AM 50.0 °F 48.2 °F 94% 30.16 in 0.5 mi Calm Calm - N/A   Overcast
7:55 AM 51.8 °F 50.0 °F 94% 30.17 in 0.5 mi Calm Calm - N/A   Overcast
8:15 AM 51.8 °F 50.0 °F 94% 30.17 in 10.0 mi Calm Calm - N/A   Overcast
8:35 AM 53.6 °F 51.8 °F 94% 30.17 in 10.0 mi Calm Calm - N/A   Overcast
8:55 AM 55.4 °F 53.6 °F 94% 30.18 in 10.0 mi Calm Calm - N/A   Overcast
9:15 AM 57.2 °F 55.4 °F 94% 30.18 in 10.0 mi West 5.8 mph - N/A   Overcast
9:35 AM 60.8 °F 55.4 °F 82% 30.18 in 10.0 mi West 9.2 mph - N/A   Overcast
9:55 AM 60.8 °F 57.2 °F 88% 30.18 in 10.0 mi West 6.9 mph - N/A   Overcast
10:15 AM 66.2 °F 57.2 °F 73% 30.18 in 10.0 mi NW 12.7 mph - N/A   Overcast
10:35 AM 66.2 °F 55.4 °F 68% 30.18 in 10.0 mi NW 10.4 mph - N/A   Scattered Clouds
10:55 AM 69.8 °F 55.4 °F 60% 30.17 in 10.0 mi NW 13.8 mph 17.3 mph N/A   Mostly Cloudy
11:15 AM 69.8 °F 55.4 °F 60% 30.16 in 10.0 mi NW 11.5 mph 18.4 mph N/A   Mostly Cloudy
11:35 AM 69.8 °F 55.4 °F 60% 30.15 in 10.0 mi NW 10.4 mph - N/A   Mostly Cloudy
11:55 AM 71.6 °F 55.4 °F 57% 30.14 in 10.0 mi WNW 12.7 mph 16.1 mph N/A   Mostly Cloudy
12:15 PM 71.6 °F 55.4 °F 57% 30.13 in 10.0 mi NW 13.8 mph 17.3 mph N/A   Mostly Cloudy
12:35 PM 71.6 °F 55.4 °F 57% 30.12 in 10.0 mi NW 11.5 mph - N/A   Scattered Clouds
12:55 PM 71.6 °F 55.4 °F 57% 30.12 in 10.0 mi WNW 10.4 mph 19.6 mph N/A   Clear
1:15 PM 71.6 °F 55.4 °F 57% 30.11 in 10.0 mi West 11.5 mph - N/A   Clear
1:35 PM 71.6 °F 55.4 °F 57% 30.10 in 10.0 mi West 10.4 mph - N/A   Clear
1:55 PM 69.8 °F 55.4 °F 60% 30.10 in 10.0 mi West 16.1 mph 20.7 mph N/A   Clear
2:15 PM 69.8 °F 55.4 °F 60% 30.10 in 10.0 mi West 11.5 mph 17.3 mph N/A   Clear
2:35 PM 68.0 °F 55.4 °F 64% 30.10 in 10.0 mi WNW 15.0 mph 19.6 mph N/A   Clear
2:55 PM 66.2 °F 55.4 °F 68% 30.09 in 10.0 mi West 13.8 mph 17.3 mph N/A   Clear
3:15 PM 66.2 °F 55.4 °F 68% 30.09 in 10.0 mi West 11.5 mph - N/A   Clear
3:35 PM 64.4 °F 55.4 °F 73% 30.09 in 10.0 mi West 10.4 mph - N/A   Scattered Clouds
3:55 PM 62.6 °F 55.4 °F 77% 30.10 in 10.0 mi West 8.1 mph - N/A   Mostly Cloudy
4:15 PM 60.8 °F 55.4 °F 82% 30.10 in 10.0 mi West 6.9 mph - N/A   Overcast
4:35 PM 62.6 °F 55.4 °F 77% 30.09 in 10.0 mi West 9.2 mph - N/A   Overcast
4:55 PM 60.8 °F 55.4 °F 82% 30.10 in 10.0 mi WNW 11.5 mph 16.1 mph N/A   Overcast
5:15 PM 60.8 °F 55.4 °F 82% 30.10 in 10.0 mi NW 11.5 mph - N/A   Overcast
5:35 PM 60.8 °F 55.4 °F 82% 30.10 in 10.0 mi NW 10.4 mph 16.1 mph N/A   Overcast
5:55 PM 60.8 °F 55.4 °F 82% 30.10 in 10.0 mi WNW 10.4 mph - N/A   Overcast
6:15 PM 60.8 °F 55.4 °F 82% 30.11 in 10.0 mi NW 8.1 mph 16.1 mph N/A   Overcast
6:35 PM 59.0 °F 55.4 °F 88% 30.11 in 10.0 mi WNW 12.7 mph - N/A   Overcast
6:55 PM 59.0 °F 53.6 °F 82% 30.11 in 10.0 mi WNW 10.4 mph - N/A   Overcast
7:15 PM 59.0 °F 53.6 °F 82% 30.11 in 10.0 mi WNW 9.2 mph - N/A   Mostly Cloudy
7:35 PM 59.0 °F 53.6 °F 82% 30.11 in 10.0 mi West 8.1 mph - N/A   Overcast
7:55 PM 59.0 °F 53.6 °F 82% 30.11 in 10.0 mi West 8.1 mph - N/A   Overcast
8:15 PM 59.0 °F 53.6 °F 82% 30.11 in 10.0 mi West 6.9 mph - N/A   Overcast
8:35 PM 59.0 °F 55.4 °F 88% 30.12 in 10.0 mi WNW 5.8 mph - N/A   Overcast
8:55 PM 59.0 °F 55.4 °F 88% 30.12 in 10.0 mi NW 4.6 mph - N/A   Overcast
9:15 PM 59.0 °F 53.6 °F 82% 30.12 in 10.0 mi WNW 5.8 mph - N/A   Overcast
9:35 PM 59.0 °F 53.6 °F 82% 30.12 in 10.0 mi WNW 8.1 mph - N/A   Overcast
9:55 PM 57.2 °F 53.6 °F 88% 30.12 in 10.0 mi West 6.9 mph - N/A   Overcast
10:15 PM 57.2 °F 53.6 °F 88% 30.11 in 10.0 mi West 8.1 mph - N/A   Overcast
10:35 PM 57.2 °F 53.6 °F 88% 30.12 in 10.0 mi West 6.9 mph - N/A   Overcast
10:55 PM 57.2 °F 53.6 °F 88% 30.11 in 10.0 mi West 6.9 mph - N/A   Overcast
11:15 PM 55.4 °F 51.8 °F 88% 30.11 in 10.0 mi West 5.8 mph - N/A   Mostly Cloudy
11:35 PM 55.4 °F 51.8 °F 88% 30.11 in 10.0 mi WSW 5.8 mph - N/A   Partly Cloudy
11:55 PM 53.6 °F 51.8 °F 94% 30.10 in 10.0 mi Calm Calm - N/A   Clear